This is the latest recevied weather packets stored in our database for station/object W4SKW. If no packets are shown the sender has not sent any weather packets the latest 10 day(s).
| Time | Temp. | Humidity | Pressure | Rain* | Wind** | Luminosity | Snow |
|---|---|---|---|---|---|---|---|
| 1777715280 | 12.22° C | 62% | 1014.4 hPa | 0 mm | - | 0 W/m² | - |
| 1777714978 | 12.22° C | 62% | 1014.4 hPa | 0 mm | - | 0 W/m² | - |
| 1777714675 | 12.78° C | 59% | 1014.6 hPa | 0 mm | - | 0 W/m² | - |
| 1777714373 | 12.78° C | 59% | 1014.6 hPa | 0 mm | - | 0 W/m² | - |
| 1777714071 | 12.78° C | 59% | 1014.4 hPa | 0 mm | - | 0 W/m² | - |
| 1777713769 | 12.78° C | 58% | 1014.5 hPa | 0 mm | - | 0 W/m² | - |
| 1777713465 | 12.78° C | 57% | 1014.3 hPa | 0 mm | - | 0 W/m² | - |
| 1777713162 | 12.78° C | 57% | 1014.1 hPa | 0 mm | - | 0 W/m² | - |
| 1777712859 | 12.78° C | 62% | 1014.3 hPa | 0 mm | - | 0 W/m² | - |
| 1777712555 | 12.78° C | 62% | 1014.3 hPa | 0 mm | - | 0 W/m² | - |
| 1777712253 | 12.78° C | 57% | 1014.3 hPa | 0 mm | - | 0 W/m² | - |
| 1777711949 | 12.78° C | 59% | 1014.4 hPa | 0 mm | - | 0 W/m² | - |
| 1777711647 | 12.78° C | 57% | 1014.5 hPa | 0 mm | - | 0 W/m² | - |
| 1777711346 | 12.78° C | 56% | 1014 hPa | 0 mm | - | 0 W/m² | - |
| 1777711043 | 12.78° C | 56% | 1014 hPa | 0 mm | - | 0 W/m² | - |
| 1777710740 | 12.78° C | 56% | 1014 hPa | 0 mm | - | 0 W/m² | - |
| 1777710437 | 12.78° C | 59% | 1014 hPa | 0 mm | - | 0 W/m² | - |
| 1777710134 | 12.78° C | 56% | 1014 hPa | 0 mm | - | 0 W/m² | - |
| 1777709831 | 12.78° C | 58% | 1014.3 hPa | 0 mm | - | 0 W/m² | - |
| 1777709529 | 12.78° C | 57% | 1014.2 hPa | 0 mm | - | 0 W/m² | - |
| 1777709226 | 13.33° C | 57% | 1014.3 hPa | 0 mm | - | 0 W/m² | - |
| 1777708924 | 13.33° C | 57% | 1014.3 hPa | 0 mm | - | 0 W/m² | - |
| 1777708621 | 13.33° C | 58% | 1014.3 hPa | 0 mm | - | 0 W/m² | - |
| 1777708318 | 13.33° C | 57% | 1014.4 hPa | 0 mm | - | 0 W/m² | - |
| 1777708016 | 13.33° C | 60% | 1014.7 hPa | 0 mm | - | 0 W/m² | - |
* Rain latest hour (hover to see other rain measurements)
** Current wind speed in m/s (hover to see current wind gust speed)